This demonstration page uses our WeatherBlox Daily Observations layout. Learn more.

39.01783, -85.05884

Hourly Observations for January 24, 2019

Temp ( °F °C ) Dew Point ( °F °C ) Humidity (%) Winds ( mph kmh ) Pressure ( in mb ) Visibility ( mi km ) Precip ( " mm )
12:11 am 00:11 Cloudy with Mist and Fog 31 -0.6 29 -1.7 92 92 WNW 12 19 29.77 1008 2 3.218688 0.001 0.001
12:22 am 00:22 Cloudy with Light Freezing Drizzle 31 -0.6 28 -2.2 89 89 NW 14 22 29.77 1008 2 3.218688 0.001 0.001
12:52 am 00:52 Cloudy with Light Snow 30 -1.1 27 -2.8 88 88 WNW 16 26 29.74 1007 2 3.218688 0.01 0.254
1:13 am 01:13 Cloudy with Light Snow 30 -1.1 27 -2.8 88 88 NW 14 22 29.77 1008 1.5 2.414016 0.001 0.001
1:52 am 01:52 Cloudy with Light Snow 29 -1.7 26 -3.3 89 89 NW 15 24 29.74 1007 3 4.828032 0.01 0.254
2:52 am 02:52 Cloudy with Mist and Fog 28 -2.2 25 -3.9 88 88 NW 14 22 29.74 1007 5 8.04672 0.001 0.001
3:52 am 03:52 Cloudy with Mist and Fog 27 -2.8 24 -4.4 89 89 NW 15 24 29.77 1008 5 8.04672 0 0
4:52 am 04:52 Cloudy with Mist and Fog 27 -2.8 24 -4.4 89 89 WNW 17 28 29.77 1008 6 9.656064 0 0
5:52 am 05:52 Cloudy with Mist and Fog 26 -3.3 23 -5 88 88 WNW 12 19 29.77 1008 6 9.656064 0 0
6:52 am 06:52 Cloudy with Mist and Fog 26 -3.3 23 -5 88 88 WNW 13 20 29.83 1010 6 9.656064 0 0
7:52 am 07:52 Cloudy 25 -3.9 22 -5.6 88 88 W 14 22 29.83 1010 7 11.265408 0 0
8:52 am 08:52 Cloudy with Mist and Fog 25 -3.9 22 -5.6 88 88 W 15 24 29.85 1011 6 9.656064 0 0
9:18 am 09:18 Cloudy with Mist and Fog 25 -3.9 21 -6.1 85 85 WNW 15 24 29.94 1014 6 9.656064 0 0
9:52 am 09:52 Cloudy with Light Snow 25 -3.9 20 -6.7 81 81 W 15 24 29.91 1013 7 11.265408 0.001 0.001
10:52 am 10:52 Cloudy 24 -4.4 20 -6.7 84 84 W 10 17 29.91 1013 9 14.484096 0.001 0.001
11:52 am 11:52 Cloudy 24 -4.4 20 -6.7 84 84 W 9 15 29.91 1013 8 12.874752 0 0
12:52 pm 12:52 Cloudy 25 -3.9 19 -7.2 78 78 W 12 19 29.91 1013 10 16.09344 0.001 0.001
1:01 pm 13:01 Cloudy 25 -3.9 19 -7.2 78 78 WSW 9 15 29.97 1015 10 16.09344 0 0
1:42 pm 13:42 Cloudy 25 -3.9 19 -7.2 78 78 W 10 17 29.97 1015 9 14.484096 0 0
1:52 pm 13:52 Cloudy 25 -3.9 19 -7.2 78 78 WSW 9 15 29.91 1013 9 14.484096 0 0
2:13 pm 14:13 Cloudy 26 -3.3 19 -7.2 75 75 W 12 19 29.97 1015 10 16.09344 0 0
2:52 pm 14:52 Cloudy 26 -3.3 20 -6.7 78 78 SW 9 15 29.91 1013 10 16.09344 0 0
3:52 pm 15:52 Cloudy 28 -2.2 20 -6.7 72 72 WSW 10 17 29.91 1013 10 16.09344 0 0
4:52 pm 16:52 Cloudy 29 -1.7 21 -6.1 72 72 SW 9 15 29.94 1014 10 16.09344 0 0
5:52 pm 17:52 Cloudy 30 -1.1 21 -6.1 69 69 WSW 8 13 29.94 1014 10 16.09344 0 0
6:52 pm 18:52 Cloudy with Light Snow 30 -1.1 21 -6.1 69 69 W 17 28 29.97 1015 10 16.09344 0.001 0.001
7:52 pm 19:52 Cloudy 29 -1.7 21 -6.1 72 72 W 15 24 30 1016 10 16.09344 0.001 0.001
8:52 pm 20:52 Cloudy with Light Snow 29 -1.7 21 -6.1 72 72 W 15 24 30 1016 9 14.484096 0.001 0.001
9:52 pm 21:52 Cloudy with Light Snow 28 -2.2 20 -6.7 72 72 W 14 22 30.03 1017 8 12.874752 0.001 0.001
10:52 pm 22:52 Cloudy 27 -2.8 17 -8.3 66 66 W 13 20 30.03 1017 9 14.484096 0.001 0.001
11:52 pm 23:52 Cloudy 27 -2.8 16 -8.9 63 63 W 18 30 30.06 1018 10 16.09344 0 0

Powered by AerisWeather